When you browse on this site, cookies collect data to enhance your experience and personalize the content and advertising you see.
Visit our Privacy Policy to learn more. By continuing to use the site, you agree to this use of cookies and data.
EN

Hourly Weather Ballycastle

Today, 14 July, Tuesday

Time Temperature Precipitation Wind Pressure Humidity
00:00 +10°C° 0 mm 5 mps 760 mmHg 86%
01:00 +10°C° 0 mm 5 mps 760 mmHg 89%
02:00 +10°C° 0 mm 5 mps 760 mmHg 91%
03:00 +9°C° 0 mm 5 mps 760 mmHg 94%
04:00 +10°C° 0 mm 5 mps 760 mmHg 93%
05:00 +10°C° 0 mm 5 mps 760 mmHg 92%
06:00 +10°C° 0 mm 5 mps 759 mmHg 92%
07:00 +12°C° 0 mm 5 mps 759 mmHg 91%
08:00 +12°C° 0 mm 5 mps 759 mmHg 90%
09:00 +12°C° 0 mm 5 mps 759 mmHg 90%
10:00 +12°C° 0.1 mm 5 mps 759 mmHg 90%
11:00 +12°C° 0.1 mm 5 mps 759 mmHg 91%
12:00 +12°C° 0.1 mm 4 mps 759 mmHg 91%
13:00 +12°C° 0.2 mm 4 mps 758 mmHg 93%
14:00 +12°C° 0.2 mm 4 mps 758 mmHg 94%
15:00 +12°C° 0.2 mm 5 mps 758 mmHg 95%
16:00 +12°C° 0.2 mm 4 mps 758 mmHg 96%
17:00 +12°C° 0.2 mm 4 mps 758 mmHg 96%
18:00 +12°C° 0.2 mm 3 mps 757 mmHg 97%
19:00 +12°C° 0.3 mm 4 mps 757 mmHg 97%
20:00 +12°C° 0.3 mm 4 mps 757 mmHg 97%
21:00 +12°C° 0.3 mm 4 mps 757 mmHg 97%
22:00 +12°C° 0.2 mm 4 mps 757 mmHg 97%
23:00 +12°C° 0.2 mm 4 mps 757 mmHg 97%

Tomorrow, 15 July, Wednesday

Time Temperature Precipitation Wind Pressure Humidity
00:00 +12°C° 0.2 mm 4 mps 757 mmHg 97%
01:00 +12°C° 0.3 mm 5 mps 757 mmHg 97%
02:00 +12°C° 0.3 mm 5 mps 757 mmHg 97%
03:00 +11°C° 0.3 mm 6 mps 756 mmHg 97%
04:00 +11°C° 0.2 mm 6 mps 756 mmHg 97%
05:00 +11°C° 0.2 mm 6 mps 756 mmHg 97%
06:00 +11°C° 0.2 mm 6 mps 757 mmHg 97%
07:00 +13°C° 0.3 mm 6 mps 757 mmHg 97%
08:00 +12°C° 0.3 mm 7 mps 757 mmHg 96%
09:00 +12°C° 0.3 mm 7 mps 757 mmHg 96%
10:00 +12°C° 0 mm 7 mps 757 mmHg 95%
11:00 +14°C° 0 mm 7 mps 757 mmHg 94%
12:00 +14°C° 0 mm 7 mps 758 mmHg 93%
13:00 +14°C° 0 mm 7 mps 758 mmHg 93%
14:00 +14°C° 0 mm 6 mps 758 mmHg 93%
15:00 +14°C° 0 mm 6 mps 758 mmHg 92%
16:00 +14°C° 0 mm 6 mps 759 mmHg 92%
17:00 +14°C° 0 mm 6 mps 759 mmHg 91%
18:00 +14°C° 0 mm 6 mps 759 mmHg 90%
19:00 +14°C° 0 mm 6 mps 759 mmHg 92%
20:00 +14°C° 0 mm 5 mps 759 mmHg 93%
21:00 +14°C° 0 mm 5 mps 760 mmHg 95%
22:00 +14°C° 0 mm 5 mps 760 mmHg 95%
23:00 +14°C° 0 mm 5 mps 760 mmHg 95%

Day after tomorrow, 16 July, Thursday

Time Temperature Precipitation Wind Pressure Humidity
00:00 +14°C° 0 mm 5 mps 760 mmHg 95%
01:00 +13°C° 0 mm 5 mps 760 mmHg 95%
02:00 +13°C° 0 mm 5 mps 760 mmHg 95%
03:00 +13°C° 0 mm 4 mps 760 mmHg 95%
04:00 +13°C° 0 mm 4 mps 760 mmHg 94%
05:00 +14°C° 0 mm 4 mps 760 mmHg 94%
06:00 +14°C° 0 mm 4 mps 760 mmHg 94%
07:00 +15°C° 0 mm 4 mps 760 mmHg 92%
08:00 +17°C° 0 mm 4 mps 760 mmHg 91%
09:00 +17°C° 0 mm 4 mps 760 mmHg 89%
10:00 +18°C° 0.1 mm 4 mps 761 mmHg 88%
11:00 +19°C° 0.1 mm 4 mps 761 mmHg 86%
12:00 +19°C° 0.1 mm 4 mps 761 mmHg 84%
13:00 +19°C° 0.1 mm 4 mps 761 mmHg 83%
14:00 +20°C° 0.1 mm 4 mps 761 mmHg 82%
15:00 +20°C° 0.1 mm 4 mps 761 mmHg 80%
16:00 +19°C° 0 mm 4 mps 761 mmHg 81%
17:00 +19°C° 0 mm 4 mps 761 mmHg 82%
18:00 +18°C° 0 mm 4 mps 760 mmHg 83%
19:00 +18°C° 0 mm 3 mps 760 mmHg 84%
20:00 +17°C° 0 mm 3 mps 760 mmHg 86%
21:00 +16°C° 0 mm 3 mps 760 mmHg 87%
22:00 +16°C° 0 mm 3 mps 760 mmHg 89%
23:00 +14°C° 0 mm 4 mps 760 mmHg 90%

17 July, Friday

Time Temperature Precipitation Wind Pressure Humidity
00:00 +14°C° 0 mm 5 mps 759 mmHg 92%
01:00 +13°C° 0 mm 5 mps 759 mmHg 92%
02:00 +13°C° 0 mm 5 mps 758 mmHg 92%
03:00 +13°C° 0 mm 5 mps 758 mmHg 92%
04:00 +13°C° 0.1 mm 5 mps 758 mmHg 91%
05:00 +14°C° 0.1 mm 5 mps 757 mmHg 90%
06:00 +14°C° 0.1 mm 5 mps 757 mmHg 88%
07:00 +14°C° 0.1 mm 4 mps 757 mmHg 89%
08:00 +15°C° 0.1 mm 4 mps 757 mmHg 89%
09:00 +15°C° 0.1 mm 4 mps 757 mmHg 90%
10:00 +15°C° 0.1 mm 4 mps 757 mmHg 91%
11:00 +15°C° 0.1 mm 4 mps 757 mmHg 92%
12:00 +15°C° 0.1 mm 4 mps 757 mmHg 93%
13:00 +15°C° 0.2 mm 4 mps 757 mmHg 93%
14:00 +15°C° 0.2 mm 4 mps 757 mmHg 93%
15:00 +15°C° 0.2 mm 4 mps 757 mmHg 94%
16:00 +15°C° 0.2 mm 4 mps 757 mmHg 94%
17:00 +14°C° 0.2 mm 4 mps 757 mmHg 94%
18:00 +14°C° 0.2 mm 4 mps 757 mmHg 94%
19:00 +13°C° 0.1 mm 4 mps 757 mmHg 94%
20:00 +12°C° 0.1 mm 4 mps 757 mmHg 93%
21:00 +11°C° 0.1 mm 4 mps 757 mmHg 93%
22:00 +10°C° 0 mm 4 mps 757 mmHg 92%
23:00 +8°C° 0 mm 4 mps 757 mmHg 92%

18 July, Saturday

Time Temperature Precipitation Wind Pressure Humidity
00:00 +8°C° 0 mm 4 mps 757 mmHg 91%
01:00 +7°C° 0 mm 4 mps 757 mmHg 91%
02:00 +7°C° 0 mm 4 mps 757 mmHg 91%
03:00 +7°C° 0 mm 4 mps 757 mmHg 91%
04:00 +7°C° 0 mm 4 mps 757 mmHg 91%
05:00 +8°C° 0 mm 4 mps 757 mmHg 91%
06:00 +8°C° 0 mm 4 mps 757 mmHg 91%
07:00 +9°C° 0 mm 5 mps 757 mmHg 88%
08:00 +12°C° 0 mm 5 mps 757 mmHg 85%
09:00 +13°C° 0 mm 5 mps 757 mmHg 82%
10:00 +13°C° 0.1 mm 5 mps 757 mmHg 79%
11:00 +14°C° 0.1 mm 5 mps 758 mmHg 76%
12:00 +14°C° 0.1 mm 5 mps 758 mmHg 73%
13:00 +14°C° 0.1 mm 6 mps 758 mmHg 72%
14:00 +14°C° 0.1 mm 6 mps 758 mmHg 72%
15:00 +14°C° 0.1 mm 6 mps 758 mmHg 72%
16:00 +13°C° 0 mm 6 mps 758 mmHg 74%
17:00 +13°C° 0 mm 6 mps 759 mmHg 76%
18:00 +13°C° 0 mm 6 mps 759 mmHg 79%
19:00 +11°C° 0 mm 6 mps 759 mmHg 81%
20:00 +10°C° 0 mm 5 mps 760 mmHg 84%
21:00 +9°C° 0 mm 5 mps 760 mmHg 87%
22:00 +9°C° 0 mm 5 mps 760 mmHg 88%
23:00 +8°C° 0 mm 5 mps 760 mmHg 90%

19 July, Sunday

Time Temperature Precipitation Wind Pressure Humidity
00:00 +8°C° 0 mm 5 mps 760 mmHg 91%
01:00 +8°C° 0.1 mm 6 mps 760 mmHg 91%
02:00 +8°C° 0.1 mm 6 mps 760 mmHg 90%
03:00 +8°C° 0.1 mm 6 mps 760 mmHg 90%
04:00 +8°C° 0.1 mm 6 mps 761 mmHg 89%
05:00 +8°C° 0.1 mm 6 mps 761 mmHg 88%
06:00 +9°C° 0.1 mm 6 mps 761 mmHg 87%
07:00 +10°C° 0.1 mm 6 mps 761 mmHg 82%
08:00 +11°C° 0.1 mm 6 mps 761 mmHg 77%
09:00 +13°C° 0.1 mm 6 mps 761 mmHg 73%
10:00 +13°C° 0.1 mm 6 mps 761 mmHg 72%
11:00 +14°C° 0.1 mm 6 mps 762 mmHg 71%
12:00 +14°C° 0.1 mm 6 mps 762 mmHg 70%
13:00 +14°C° 0.1 mm 6 mps 762 mmHg 70%
14:00 +14°C° 0.1 mm 6 mps 762 mmHg 70%
15:00 +14°C° 0.1 mm 6 mps 762 mmHg 71%
16:00 +14°C° 0.1 mm 6 mps 762 mmHg 72%
17:00 +13°C° 0.1 mm 6 mps 762 mmHg 74%
18:00 +13°C° 0.1 mm 5 mps 762 mmHg 75%
19:00 +12°C° 0.1 mm 5 mps 762 mmHg 79%
20:00 +10°C° 0.1 mm 5 mps 762 mmHg 82%
21:00 +10°C° 0.1 mm 5 mps 762 mmHg 86%
22:00 +9°C° 0.1 mm 5 mps 762 mmHg 88%
23:00 +9°C° 0.1 mm 5 mps 762 mmHg 90%
Show more